SCP
0 0 0 0 0 0 0 0 0 0 0 0 0 0 -0 -0 0 0 0 0 0 0 0 -0 -0 0 0 -0 0 0 0 0 1 1 1 0 0 0 0 0 0 0 0 0
0 0 0 0 0 0 0 0 0 0 0 0 0 0 -0 0 0 0 0 0 0 0 0 -0 -0 0 0 0 0 0 0 0 1 0 0 0 0 0 0 0 0 0 0 0
0 0 0 0 0 0 0 0 0 0 0 0 0 0 -0 -0 -0 0 0 0 0 0 0 0 0 -0 0 0 0 0 0 0 0 1 0 0 0 0 0 0 0 0 0 0
0 0 0 0 0 0 0 0 0 0 0 0 -0 0 0 0 0 0 -0 -0 0 0 0 0 0 -0 -0 0 0 0 0 0 0 0 0 0 0 0 0 0 0 0 0 0
0 0 0 0 0 0 0 0 0 -0 -0 -0 0 0 0 0 0 0 0 -0 -0 0 0 0 0 0 0 0 0 0 0 0 0 0 0 0 0 0 0 0 0 0 0 0
0 0 0 0 0 0 -0 0 0 0 0 0 0 0 0 -0 0 0 0 0 0 0 0 0 0 0 0 0 0 0 0 0 0 0 0 0 0 0 0 0 0 0 0 0
0 0 0 0 0 0 0 0 -0 -0 -0 -0 -0 -0 0 0 -0 0 0 0 0 0 0 0 0 0 0 0 0 0 0 0 0 0 0 0 0 0 0 0 0 0 0 0
0 0 0 -0 -0 0 0 -0 -0 0 -0 -0 -0 -0 -0 0 0 -0 -0 -0 0 0 0 0 0 0 0 0 0 0 0 0 0 0 0 0 0 0 0 0 0 0 0 0
0 0 -0 -0 -0 0 0 0 -0 0 0 0 -0 0 0 0 0 0 0 0 0 0 0 0 0 0 -0 0 0 0 0 0 0 0 0 0 0 0 0 0 0 0 0 0
-0 -0 0 -0 -0 0 0 0 0 0 0 0 0 0 0 0 0 0 0 -0 -0 0 0 -0 -0 -0 -0 0 0 0 0 0 0 0 0 0 0 0 0 0 0 0 0 0
-0 -0 0 -0 -0 0 0 0 0 0 0 0 0 0 0 0 0 0 0 0 0 -0 0 0 0 0 0 0 0 -0 0 0 0 -0 -0 -0 -0 -0 -0 0 0 0 0 0
0 -0 -0 -0 -0 0 0 0 0 0 0 0 0 0 0 0 0 0 0 0 0 0 0 0 -0 0 0 0 -0 -0 0 0 0 0 -0 -0 -0 0 0 -0 -0 -0 -0 0
-0 -0 -0 -0 0 0 0 0 -0 -0 0 0 0 0 0 0 0 0 0 0 0 0 0 0 0 0 0 0 -0 0 0 0 0 -0 -0 0 0 0 0 0 -0 -0 -0 -0
0 0 0 0 0 0 0 0 0 0 0 0 0 0 -0 0 0 0 0 0 0 0 0 0 0 0 0 0 0 0 -0 -0 -0 0 0 0 0 0 0 0 0 -0 -0 -0
0 0 0 0 0 0 0 0 0 0 0 0 0 -0 -0 -0 -0 0 0 0 0 0 0 0 0 -0 0 0 -0 0 -0 -0 0 -0 -0 0 0 0 0 0 0 0 0 -0
0 0 0 0 0 0 0 0 0 0 0 0 0 -0 0 -0 -0 0 0 0 0 -0 -0 -0 -0 -0 0 0 0 0 0 -0 -0 -0 -0 0 0 0 0 0 0 0 0 0
0 0 0 0 0 0 0 0 0 0 0 -0 -0 0 -0 -0 -0 -0 0 0 0 0 0 0 -0 0 -0 -0 -0 -0 -0 0 -0 0 0 0 0 0 0 0 0 0 0 0
-0 0 0 -0 0 0 0 0 0 0 0 0 -0 -0 -0 -0 -0 0 0 0 0 0 0 0 0 0 0 0 0 0 0 0 0 0 0 0 0 0 0 0 0 0 0 0
-0 -0 0 -0 0 0 0 0 0 0 0 0 0 0 0 -0 -0 -0 0 0 0 0 0 0 0 0 0 0 0 0 0 0 0 0 0 0 0 0 0 0 0 0 0 0
0 0 0 0 -0 0 0 0 0 0 0 0 0 0 0 0 -0 -0 -0 0 0 0 0 0 0 0 0 0 0 0 0 0 0 0 0 0 0 0 0 0 0 0 0 0
0 0 0 0 0 0 0 0 0 0 0 0 0 0 0 0 0 0 0 -0 0 0 0 0 0 0 0 0 0 0 0 0 0 0 0 0 0 0 0 0 0 0 0 0
0 0 0 0 0 0 0 0 0 0 0 0 0 0 0 0 0 0 0 0 0 0 0 0 0 0 0 0 0 0 0 0 0 0 0 0 0 0 0 0 0 0 0 0
0 0 0 0 0 0 0 0 -0 0 0 0 0 0 0 0 0 0 0 0 0 0 0 0 0 0 0 0 0 0 0 0 0 0 0 0 0 0 0 0 0 0 0 -0
0 -0 0 0 0 0 0 0 0 0 0 0 0 0 0 0 0 0 0 0 0 0 0 0 0 0 0 0 0 0 0 0 0 0 0 0 0 0 0 0 0 -0 -0 -0
0 0 -0 0 0 0 0 0 0 0 0 0 0 0 0 0 0 0 0 0 0 0 0 0 0 0 0 0 0 0 0 0 0 0 0 0 0 0 0 0 -0 -0 -0 -0
0 0 0 0 0 0 0 0 0 0 0 -0 0 0 0 0 0 0 0 0 0 0 0 0 0 0 0 0 0 0 0 0 0 0 0 0 0 0 0 -0 -0 -0 -0 -0
0 0 0 -0 0 0 0 0 0 0 0 0 0 0 0 0 0 0 0 0 0 0 0 0 0 0 0 0 0 0 0 0 0 0 0 0 0 0 0 -0 -0 -0 -0 -0
Wind_Speed_500mb
13 8 11 10 16 30 28 26 19 38 41 50 55 64 74 70 86 83 77 78 83 88 92 89 92 97 99 91 86 93 98 72 61 67 78 77 67 65 59 58 65 58 54 48
15 15 7 33 29 26 26 32 26 34 33 57 60 61 55 63 71 75 81 88 87 84 83 91 99 94 95 98 94 89 94 75 66 74 55 62 63 61 60 61 58 53 53 51
1 5 11 23 27 27 26 32 27 24 36 53 52 63 42 64 67 68 74 80 85 85 94 85 83 93 103 106 85 88 89 67 52 69 66 74 66 63 62 64 59 57 50 50
7 11 9 16 30 31 28 27 31 28 31 47 52 56 48 67 70 71 74 79 81 82 77 78 77 77 81 93 88 81 74 63 46 69 77 65 63 60 58 58 61 60 55 51
4 10 25 7 28 32 29 15 39 25 39 43 55 51 44 58 62 66 69 74 79 77 75 72 57 49 51 52 57 41 44 54 49 67 71 69 69 67 67 67 65 59 59 49
8 2 6 12 32 44 39 6 37 41 42 44 46 23 24 52 58 65 68 72 76 81 85 78 59 50 53 52 35 14 21 32 72 80 85 80 70 64 61 60 53 47 41 31
12 4 10 22 32 32 16 15 34 20 28 37 27 28 45 50 54 54 64 67 80 83 95 80 82 70 68 67 67 48 41 42 43 64 75 79 69 61 52 47 39 27 14 6
11 9 8 33 13 10 5 13 19 19 33 31 31 35 42 38 45 53 65 65 70 78 85 87 80 77 68 67 54 58 78 73 61 85 62 71 60 57 48 38 34 30 25 24
7 5 5 19 15 4 5 6 18 15 23 26 29 26 37 34 44 50 53 60 61 68 69 79 85 74 75 64 46 67 72 66 47 68 52 65 44 37 32 27 22 22 21 20
7 5 8 17 18 12 10 15 19 23 17 29 32 24 39 38 41 43 45 57 61 59 69 63 72 73 65 71 71 57 67 69 73 64 62 50 37 30 25 25 17 21 16 17
14 19 2 15 17 18 17 20 22 25 20 30 34 24 33 39 42 33 34 44 51 58 56 60 58 60 62 46 57 56 69 59 55 61 57 54 46 45 50 35 23 9 7 6
5 1 2 12 16 17 17 20 22 22 23 23 29 33 35 37 41 41 43 42 48 51 57 54 59 58 55 53 55 51 65 64 59 51 29 35 41 36 33 39 39 31 26 18
6 4 6 12 7 14 15 16 18 24 17 21 25 28 31 34 35 36 41 44 49 45 50 51 64 50 58 52 57 59 45 43 37 37 36 38 35 28 27 29 25 28 36 42
6 11 7 15 16 16 13 17 16 15 16 16 21 23 26 28 31 33 39 43 45 50 51 55 54 53 54 54 55 63 58 43 41 31 32 32 27 24 22 22 27 26 30 40
3 5 5 9 15 15 12 18 16 18 15 16 20 24 24 29 32 29 32 37 40 46 52 56 56 62 48 49 46 44 49 40 39 36 36 35 31 31 28 27 26 25 34 32
8 10 10 12 12 15 14 17 17 15 15 17 19 20 23 24 28 26 26 32 39 46 48 52 53 56 43 47 44 39 38 43 38 36 35 34 33 31 29 28 28 27 26 22
10 8 12 4 5 13 10 11 12 11 11 14 16 19 19 21 22 27 28 28 32 41 43 48 50 49 53 43 43 42 41 39 36 34 33 31 29 29 29 27 25 24 27 31
14 18 17 13 11 5 7 8 7 6 6 8 13 16 19 19 17 18 21 23 27 31 39 44 45 48 44 42 40 42 42 42 39 37 32 32 29 28 25 25 26 29 28 35
12 15 16 12 12 3 8 8 7 6 7 7 10 10 13 14 18 18 13 16 22 27 27 34 44 42 52 42 42 41 41 40 38 35 33 32 28 28 29 29 29 29 30 37
13 16 11 7 13 10 11 13 13 15 14 12 12 12 13 16 15 13 19 8 11 28 27 21 42 43 41 44 46 42 42 41 40 36 36 33 31 29 29 28 31 30 33 41
13 9 8 9 12 17 16 19 20 23 20 22 19 19 20 21 21 17 16 16 16 21 25 22 28 56 55 46 46 43 45 40 39 39 38 38 36 36 35 35 35 37 46 49
19 18 14 14 16 20 18 21 26 24 29 26 25 24 26 27 20 19 20 15 19 26 32 21 35 49 53 44 56 51 42 41 42 45 45 41 46 51 46 48 49 49 51 53
12 14 17 16 18 13 18 21 24 31 31 22 23 26 26 28 23 28 34 16 19 26 31 24 41 42 44 40 50 47 46 47 54 52 49 43 48 53 54 54 51 50 53 56
17 17 16 17 19 14 21 22 30 30 28 13 11 23 23 22 26 22 13 15 30 30 28 25 33 43 41 40 39 50 44 47 59 55 52 43 47 53 56 53 53 52 53 56
19 18 18 17 17 14 18 17 22 23 27 26 19 17 16 15 11 13 18 19 26 29 23 30 33 35 34 17 26 36 41 50 53 53 53 39 45 51 58 54 55 53 54 56
18 18 20 20 22 18 19 26 26 21 23 25 26 25 22 14 18 17 21 20 25 24 19 24 17 21 16 23 26 37 42 55 51 50 48 43 47 55 57 58 60 56 58 63
17 17 24 22 20 20 16 22 23 21 19 25 34 19 20 20 26 14 21 19 27 25 22 26 18 14 11 16 26 29 41 31 41 50 42 46 50 64 56 63 62 60 62 67
Wind_Direction_500mb
344 359 22 340 12 41 25 2 344 348 337 2 352 347 346 353 348 347 340 331 328 327 327 324 319 314 311 304 301 302 302 297 286 239 230 228 207 195 191 179 175 175 169 171
270 187 227 75 51 27 15 20 7 350 345 356 346 340 8 1 354 345 340 333 330 326 322 320 320 315 309 308 305 296 297 294 276 237 200 180 186 185 178 176 168 173 173 179
84 63 191 80 24 22 30 43 28 6 352 346 347 347 12 4 359 346 340 334 331 327 324 320 319 316 313 310 303 291 293 282 238 200 183 183 176 173 172 172 167 168 165 182
291 258 271 126 33 15 73 48 24 6 354 349 345 336 358 3 353 351 349 347 343 338 332 326 315 313 313 309 306 294 286 276 246 195 177 169 164 170 165 168 168 169 173 193
328 321 125 56 3 345 330 65 28 1 354 351 349 343 2 357 356 355 355 353 1 0 358 349 337 339 334 325 310 288 271 265 209 174 159 157 162 168 167 172 175 176 179 189
352 327 16 21 334 324 298 82 17 11 354 352 351 353 352 352 354 359 4 6 6 11 11 8 5 13 22 22 32 133 140 146 184 171 166 163 172 174 172 181 184 182 188 202
7 62 93 348 348 343 47 338 342 341 1 355 3 350 336 343 348 353 1 5 4 7 11 7 14 22 33 38 45 67 82 85 98 138 155 155 158 164 166 167 168 168 173 187
355 16 69 359 11 50 318 324 302 340 342 331 347 343 348 352 358 354 355 358 7 13 17 14 12 14 19 35 38 57 74 71 57 81 80 101 104 102 104 100 98 92 71 43
46 61 52 35 59 58 1 334 348 340 341 338 333 328 346 353 350 4 9 16 13 8 14 16 10 9 22 19 24 41 67 58 62 71 62 70 65 66 72 70 64 61 49 63
91 39 64 55 43 29 23 9 342 336 322 333 348 349 353 346 343 346 357 359 357 4 9 13 8 17 13 16 35 43 55 60 55 52 50 58 59 68 73 89 104 108 128 128
105 46 46 30 17 7 3 3 355 353 346 355 358 2 357 4 9 347 350 358 7 4 6 8 7 9 19 19 23 31 47 47 45 45 46 51 47 51 47 44 58 55 69 138
46 55 342 335 349 357 353 356 348 352 1 6 3 5 10 9 8 6 8 5 7 6 8 13 11 15 14 16 21 32 42 40 37 46 37 36 38 32 38 32 34 33 36 29
51 350 350 348 350 356 350 342 334 338 9 8 10 6 7 5 5 6 9 9 11 16 17 14 10 13 18 19 19 27 41 43 35 33 40 40 43 20 20 22 12 18 4 358
50 351 346 6 354 334 348 346 333 1 19 26 13 7 6 9 10 16 17 13 14 17 13 17 16 17 22 20 13 19 25 45 36 27 34 37 34 27 27 24 19 4 355 352
44 351 317 334 1 3 354 345 14 21 16 27 20 15 14 13 19 22 25 19 18 18 17 14 16 9 24 25 25 15 21 27 26 24 24 26 27 21 18 12 14 6 353 352
270 285 322 338 350 357 18 10 19 22 21 27 22 16 18 17 18 24 24 22 27 20 18 16 17 8 21 29 22 23 21 19 24 23 21 22 20 15 12 8 8 0 348 334
280 328 327 307 337 340 18 17 19 22 23 22 16 18 11 13 21 25 24 24 30 24 20 15 18 14 13 26 23 19 20 20 21 22 20 17 14 12 8 7 0 354 343 342
279 283 304 311 306 323 349 350 11 18 17 354 356 7 8 3 7 17 29 22 15 19 19 17 18 13 17 25 28 18 19 19 19 19 18 16 14 9 4 1 357 352 346 330
299 294 305 298 297 290 302 307 312 298 281 299 322 335 341 347 0 353 350 18 21 7 2 6 19 8 12 24 29 18 18 18 17 17 15 13 10 6 4 0 354 350 346 329
308 294 285 246 339 297 280 273 275 277 284 283 290 288 305 318 329 347 352 319 16 17 1 355 3 16 4 22 20 24 17 16 15 14 11 10 5 3 358 355 353 345 337 337
355 355 333 263 302 318 299 284 282 277 291 269 271 279 289 296 290 298 308 332 316 356 358 356 339 359 6 15 13 19 15 12 11 6 6 2 356 360 356 352 348 347 341 347
21 18 9 1 349 340 343 324 317 299 286 265 262 280 285 292 305 305 309 294 325 325 355 325 327 343 354 5 7 14 10 7 4 0 359 360 357 357 355 353 353 350 347 345
2 352 351 343 332 332 347 351 342 337 328 273 255 269 289 294 293 296 304 314 301 312 331 317 324 337 347 0 1 3 3 359 358 358 355 359 356 352 353 350 351 347 344 346
357 349 341 339 333 348 344 346 349 352 352 326 280 284 293 292 299 310 318 315 327 333 332 310 324 337 338 349 359 358 0 355 352 353 355 357 355 349 347 348 346 346 348 345
356 350 344 340 338 333 329 10 356 346 5 356 335 330 314 311 304 321 330 315 319 329 313 310 322 337 334 348 351 358 355 354 343 343 351 354 353 344 344 345 345 347 345 342
343 348 344 315 302 311 346 350 345 346 352 16 359 349 340 349 334 323 327 327 330 332 352 321 315 338 330 340 347 344 347 344 339 339 350 356 352 342 345 344 349 348 347 348
347 347 346 339 339 341 346 342 336 345 356 352 343 327 320 335 334 357 330 334 337 342 339 340 343 8 337 339 338 350 350 350 334 344 2 354 345 341 342 344 348 349 350 349
Wind_Speed_850mb
13 8 11 10 16 30 28 26 19 38 41 50 55 64 74 70 86 83 77 78 83 88 92 89 92 97 99 91 86 93 98 72 61 67 78 77 67 65 59 58 65 58 54 48
15 15 7 33 29 26 26 32 26 34 33 57 60 61 55 63 71 75 81 88 87 84 83 91 99 94 95 98 94 89 94 75 66 74 55 62 63 61 60 61 58 53 53 51
1 5 11 23 27 27 26 32 27 24 36 53 52 63 42 64 67 68 74 80 85 85 94 85 83 93 103 106 85 88 89 67 52 69 66 74 66 63 62 64 59 57 50 50
7 11 9 16 30 31 28 27 31 28 31 47 52 56 48 67 70 71 74 79 81 82 77 78 77 77 81 93 88 81 74 63 46 69 77 65 63 60 58 58 61 60 55 51
4 10 25 7 28 32 29 15 39 25 39 43 55 51 44 58 62 66 69 74 79 77 75 72 57 49 51 52 57 41 44 54 49 67 71 69 69 67 67 67 65 59 59 49
8 2 6 12 32 44 39 6 37 41 42 44 46 23 24 52 58 65 68 72 76 81 85 78 59 50 53 52 35 14 21 32 72 80 85 80 70 64 61 60 53 47 41 31
12 4 10 22 32 32 16 15 34 20 28 37 27 28 45 50 54 54 64 67 80 83 95 80 82 70 68 67 67 48 41 42 43 64 75 79 69 61 52 47 39 27 14 6
11 9 8 33 13 10 5 13 19 19 33 31 31 35 42 38 45 53 65 65 70 78 85 87 80 77 68 67 54 58 78 73 61 85 62 71 60 57 48 38 34 30 25 24
7 5 5 19 15 4 5 6 18 15 23 26 29 26 37 34 44 50 53 60 61 68 69 79 85 74 75 64 46 67 72 66 47 68 52 65 44 37 32 27 22 22 21 20
7 5 8 17 18 12 10 15 19 23 17 29 32 24 39 38 41 43 45 57 61 59 69 63 72 73 65 71 71 57 67 69 73 64 62 50 37 30 25 25 17 21 16 17
14 19 2 15 17 18 17 20 22 25 20 30 34 24 33 39 42 33 34 44 51 58 56 60 58 60 62 46 57 56 69 59 55 61 57 54 46 45 50 35 23 9 7 6
5 1 2 12 16 17 17 20 22 22 23 23 29 33 35 37 41 41 43 42 48 51 57 54 59 58 55 53 55 51 65 64 59 51 29 35 41 36 33 39 39 31 26 18
6 4 6 12 7 14 15 16 18 24 17 21 25 28 31 34 35 36 41 44 49 45 50 51 64 50 58 52 57 59 45 43 37 37 36 38 35 28 27 29 25 28 36 42
6 11 7 15 16 16 13 17 16 15 16 16 21 23 26 28 31 33 39 43 45 50 51 55 54 53 54 54 55 63 58 43 41 31 32 32 27 24 22 22 27 26 30 40
3 5 5 9 15 15 12 18 16 18 15 16 20 24 24 29 32 29 32 37 40 46 52 56 56 62 48 49 46 44 49 40 39 36 36 35 31 31 28 27 26 25 34 32
8 10 10 12 12 15 14 17 17 15 15 17 19 20 23 24 28 26 26 32 39 46 48 52 53 56 43 47 44 39 38 43 38 36 35 34 33 31 29 28 28 27 26 22
10 8 12 4 5 13 10 11 12 11 11 14 16 19 19 21 22 27 28 28 32 41 43 48 50 49 53 43 43 42 41 39 36 34 33 31 29 29 29 27 25 24 27 31
14 18 17 13 11 5 7 8 7 6 6 8 13 16 19 19 17 18 21 23 27 31 39 44 45 48 44 42 40 42 42 42 39 37 32 32 29 28 25 25 26 29 28 35
12 15 16 12 12 3 8 8 7 6 7 7 10 10 13 14 18 18 13 16 22 27 27 34 44 42 52 42 42 41 41 40 38 35 33 32 28 28 29 29 29 29 30 37
13 16 11 7 13 10 11 13 13 15 14 12 12 12 13 16 15 13 19 8 11 28 27 21 42 43 41 44 46 42 42 41 40 36 36 33 31 29 29 28 31 30 33 41
13 9 8 9 12 17 16 19 20 23 20 22 19 19 20 21 21 17 16 16 16 21 25 22 28 56 55 46 46 43 45 40 39 39 38 38 36 36 35 35 35 37 46 49
19 18 14 14 16 20 18 21 26 24 29 26 25 24 26 27 20 19 20 15 19 26 32 21 35 49 53 44 56 51 42 41 42 45 45 41 46 51 46 48 49 49 51 53
12 14 17 16 18 13 18 21 24 31 31 22 23 26 26 28 23 28 34 16 19 26 31 24 41 42 44 40 50 47 46 47 54 52 49 43 48 53 54 54 51 50 53 56
17 17 16 17 19 14 21 22 30 30 28 13 11 23 23 22 26 22 13 15 30 30 28 25 33 43 41 40 39 50 44 47 59 55 52 43 47 53 56 53 53 52 53 56
19 18 18 17 17 14 18 17 22 23 27 26 19 17 16 15 11 13 18 19 26 29 23 30 33 35 34 17 26 36 41 50 53 53 53 39 45 51 58 54 55 53 54 56
18 18 20 20 22 18 19 26 26 21 23 25 26 25 22 14 18 17 21 20 25 24 19 24 17 21 16 23 26 37 42 55 51 50 48 43 47 55 57 58 60 56 58 63
17 17 24 22 20 20 16 22 23 21 19 25 34 19 20 20 26 14 21 19 27 25 22 26 18 14 11 16 26 29 41 31 41 50 42 46 50 64 56 63 62 60 62 67
Wind_Direction_850mb
344 359 22 340 12 41 25 2 344 348 337 2 352 347 346 353 348 347 340 331 328 327 327 324 319 314 311 304 301 302 302 297 286 239 230 228 207 195 191 179 175 175 169 171
270 187 227 75 51 27 15 20 7 350 345 356 346 340 8 1 354 345 340 333 330 326 322 320 320 315 309 308 305 296 297 294 276 237 200 180 186 185 178 176 168 173 173 179
84 63 191 80 24 22 30 43 28 6 352 346 347 347 12 4 359 346 340 334 331 327 324 320 319 316 313 310 303 291 293 282 238 200 183 183 176 173 172 172 167 168 165 182
291 258 271 126 33 15 73 48 24 6 354 349 345 336 358 3 353 351 349 347 343 338 332 326 315 313 313 309 306 294 286 276 246 195 177 169 164 170 165 168 168 169 173 193
328 321 125 56 3 345 330 65 28 1 354 351 349 343 2 357 356 355 355 353 1 0 358 349 337 339 334 325 310 288 271 265 209 174 159 157 162 168 167 172 175 176 179 189
352 327 16 21 334 324 298 82 17 11 354 352 351 353 352 352 354 359 4 6 6 11 11 8 5 13 22 22 32 133 140 146 184 171 166 163 172 174 172 181 184 182 188 202
7 62 93 348 348 343 47 338 342 341 1 355 3 350 336 343 348 353 1 5 4 7 11 7 14 22 33 38 45 67 82 85 98 138 155 155 158 164 166 167 168 168 173 187
355 16 69 359 11 50 318 324 302 340 342 331 347 343 348 352 358 354 355 358 7 13 17 14 12 14 19 35 38 57 74 71 57 81 80 101 104 102 104 100 98 92 71 43
46 61 52 35 59 58 1 334 348 340 341 338 333 328 346 353 350 4 9 16 13 8 14 16 10 9 22 19 24 41 67 58 62 71 62 70 65 66 72 70 64 61 49 63
91 39 64 55 43 29 23 9 342 336 322 333 348 349 353 346 343 346 357 359 357 4 9 13 8 17 13 16 35 43 55 60 55 52 50 58 59 68 73 89 104 108 128 128
105 46 46 30 17 7 3 3 355 353 346 355 358 2 357 4 9 347 350 358 7 4 6 8 7 9 19 19 23 31 47 47 45 45 46 51 47 51 47 44 58 55 69 138
46 55 342 335 349 357 353 356 348 352 1 6 3 5 10 9 8 6 8 5 7 6 8 13 11 15 14 16 21 32 42 40 37 46 37 36 38 32 38 32 34 33 36 29
51 350 350 348 350 356 350 342 334 338 9 8 10 6 7 5 5 6 9 9 11 16 17 14 10 13 18 19 19 27 41 43 35 33 40 40 43 20 20 22 12 18 4 358
50 351 346 6 354 334 348 346 333 1 19 26 13 7 6 9 10 16 17 13 14 17 13 17 16 17 22 20 13 19 25 45 36 27 34 37 34 27 27 24 19 4 355 352
44 351 317 334 1 3 354 345 14 21 16 27 20 15 14 13 19 22 25 19 18 18 17 14 16 9 24 25 25 15 21 27 26 24 24 26 27 21 18 12 14 6 353 352
270 285 322 338 350 357 18 10 19 22 21 27 22 16 18 17 18 24 24 22 27 20 18 16 17 8 21 29 22 23 21 19 24 23 21 22 20 15 12 8 8 0 348 334
280 328 327 307 337 340 18 17 19 22 23 22 16 18 11 13 21 25 24 24 30 24 20 15 18 14 13 26 23 19 20 20 21 22 20 17 14 12 8 7 0 354 343 342
279 283 304 311 306 323 349 350 11 18 17 354 356 7 8 3 7 17 29 22 15 19 19 17 18 13 17 25 28 18 19 19 19 19 18 16 14 9 4 1 357 352 346 330
299 294 305 298 297 290 302 307 312 298 281 299 322 335 341 347 0 353 350 18 21 7 2 6 19 8 12 24 29 18 18 18 17 17 15 13 10 6 4 0 354 350 346 329
308 294 285 246 339 297 280 273 275 277 284 283 290 288 305 318 329 347 352 319 16 17 1 355 3 16 4 22 20 24 17 16 15 14 11 10 5 3 358 355 353 345 337 337
355 355 333 263 302 318 299 284 282 277 291 269 271 279 289 296 290 298 308 332 316 356 358 356 339 359 6 15 13 19 15 12 11 6 6 2 356 360 356 352 348 347 341 347
21 18 9 1 349 340 343 324 317 299 286 265 262 280 285 292 305 305 309 294 325 325 355 325 327 343 354 5 7 14 10 7 4 0 359 360 357 357 355 353 353 350 347 345
2 352 351 343 332 332 347 351 342 337 328 273 255 269 289 294 293 296 304 314 301 312 331 317 324 337 347 0 1 3 3 359 358 358 355 359 356 352 353 350 351 347 344 346
357 349 341 339 333 348 344 346 349 352 352 326 280 284 293 292 299 310 318 315 327 333 332 310 324 337 338 349 359 358 0 355 352 353 355 357 355 349 347 348 346 346 348 345
356 350 344 340 338 333 329 10 356 346 5 356 335 330 314 311 304 321 330 315 319 329 313 310 322 337 334 348 351 358 355 354 343 343 351 354 353 344 344 345 345 347 345 342
343 348 344 315 302 311 346 350 345 346 352 16 359 349 340 349 334 323 327 327 330 332 352 321 315 338 330 340 347 344 347 344 339 339 350 356 352 342 345 344 349 348 347 348
347 347 346 339 339 341 346 342 336 345 356 352 343 327 320 335 334 357 330 334 337 342 339 340 343 8 337 339 338 350 350 350 334 344 2 354 345 341 342 344 348 349 350 349